Location: Arborea
(39.7744°N, 8.5819°E)
Time: 18:34:44
(UTC+00:00)

Okean-O - Pass Details

Date: 07 June 2022
Orbit: 638 x 640 km, 98.1° (Epoch: 27 June)

Event Time Altitude Azimuth Distance (km) Brightness Sun altitude
Rises 20:07:10 0° 204° (SSW) 2,928 5.8 -12.3°
Reaches altitude 10° 20:10:00 10° 224° (SW) 2,025 5.2 -12.7°
Maximum altitude 20:12:58 18° 267° (W) 1,584 5.2 -13.1°
Drops below altitude 10° 20:15:58 10° 309° (NW) 2,034 6.7 -13.5°
Sets 20:18:50 0° 329° (NNW) 2,948 7.7 -13.9°
